Location: Molveno
(46.1500°N, 10.9667°E)
Time: 01:43:06
(UTC+00:00)

Cosmos 371 Rocket - Pass Details

Date: 05 July 2020
Orbit: 684 x 698 km, 74.0° (Epoch: 10 August)

Event Time Altitude Azimuth Distance (km) Brightness Sun altitude
Rises 23:42:56 0° 330° (NNW) 3,082 7.5 -21.0°
Reaches altitude 10° 23:45:24 10° 322° (NW) 2,158 6.4 -21.0°
Maximum altitude 23:49:48 35° 258° (WSW) 1,115 4.1 -20.9°
Enters shadow 23:50:25 34° 241° (WSW) 1,144 4.1 -20.9°
